TimePST,TemperatureF,Dew PointF,Humidity,Sea Level PressureIn,VisibilityMPH,Wind Direction,Wind SpeedMPH,Gust SpeedMPH,PrecipitationIn,Events,Conditions,WindDirDegrees,DateUTC
12:15 AM,39.2,39.2,100,30.14,3.0,NW,6.9,-,N/A,,Overcast,320,2012-12-23 08:15:00
12:35 AM,39.2,39.2,100,30.13,6.0,NW,10.4,-,N/A,,Overcast,310,2012-12-23 08:35:00
12:55 AM,39.2,39.2,100,30.14,9.0,WNW,12.7,-,N/A,,Overcast,300,2012-12-23 08:55:00
1:15 AM,39.2,39.2,100,30.14,9.0,NW,10.4,-,N/A,,Overcast,320,2012-12-23 09:15:00
1:35 AM,39.2,39.2,100,30.15,10.0,WNW,11.5,-,N/A,,Overcast,290,2012-12-23 09:35:00
1:55 AM,41.0,39.2,93,30.15,10.0,NW,12.7,-,N/A,,Overcast,310,2012-12-23 09:55:00
2:15 AM,41.0,39.2,93,30.14,10.0,NW,15.0,-,N/A,,Overcast,310,2012-12-23 10:15:00
2:35 AM,39.2,39.2,100,30.14,10.0,NW,15.0,-,N/A,,Overcast,310,2012-12-23 10:35:00
2:55 AM,39.2,39.2,100,30.14,10.0,WNW,13.8,19.6,N/A,,Overcast,300,2012-12-23 10:55:00
3:15 AM,39.2,39.2,100,30.14,7.0,WNW,13.8,-,N/A,,Mostly Cloudy,300,2012-12-23 11:15:00
3:35 AM,39.2,39.2,100,30.13,5.0,WNW,16.1,-,N/A,,Overcast,300,2012-12-23 11:35:00
3:55 AM,39.2,39.2,100,30.13,5.0,WNW,15.0,-,N/A,,Overcast,290,2012-12-23 11:55:00
4:15 AM,39.2,39.2,100,30.12,5.0,WNW,11.5,-,N/A,,Overcast,290,2012-12-23 12:15:00
4:35 AM,39.2,39.2,100,30.13,5.0,WNW,13.8,-,N/A,,Overcast,290,2012-12-23 12:35:00
4:55 AM,39.2,39.2,100,30.12,5.0,WNW,13.8,-,N/A,,Overcast,300,2012-12-23 12:55:00
5:15 AM,39.2,39.2,100,30.12,5.0,WNW,11.5,-,N/A,,Overcast,300,2012-12-23 13:15:00
5:35 AM,37.4,37.4,100,30.12,4.0,NW,11.5,-,N/A,,Mostly Cloudy,310,2012-12-23 13:35:00
5:55 AM,37.4,37.4,100,30.12,4.0,WNW,12.7,-,N/A,,Scattered Clouds,300,2012-12-23 13:55:00
6:15 AM,37.4,37.4,100,30.12,4.0,WNW,11.5,-,N/A,,Scattered Clouds,290,2012-12-23 14:15:00
6:35 AM,37.4,37.4,100,30.12,7.0,WNW,11.5,-,N/A,,Partly Cloudy,290,2012-12-23 14:35:00
6:55 AM,37.4,37.4,100,30.13,8.0,WNW,13.8,-,N/A,,Clear,290,2012-12-23 14:55:00
7:15 AM,37.4,37.4,100,30.12,8.0,WNW,12.7,-,N/A,,Clear,300,2012-12-23 15:15:00
7:35 AM,37.4,37.4,100,30.11,7.0,WNW,10.4,-,N/A,,Clear,290,2012-12-23 15:35:00
7:55 AM,39.2,37.4,93,30.11,7.0,WNW,8.1,-,N/A,,Clear,300,2012-12-23 15:55:00
8:15 AM,41.0,39.2,93,30.13,9.0,WNW,11.5,-,N/A,,Clear,290,2012-12-23 16:15:00
8:35 AM,41.0,39.2,93,30.13,9.0,WNW,12.7,-,N/A,,Clear,300,2012-12-23 16:35:00
8:55 AM,41.0,39.2,93,30.13,10.0,WNW,13.8,-,N/A,,Partly Cloudy,300,2012-12-23 16:55:00
9:15 AM,41.0,37.4,87,30.15,10.0,NW,16.1,21.9,N/A,,Partly Cloudy,310,2012-12-23 17:15:00
9:35 AM,42.8,37.4,81,30.15,10.0,NW,20.7,24.2,N/A,,Scattered Clouds,320,2012-12-23 17:35:00
9:55 AM,42.8,37.4,81,30.14,9.0,NW,15.0,-,N/A,,Partly Cloudy,320,2012-12-23 17:55:00
10:15 AM,44.6,37.4,76,30.15,10.0,NW,20.7,-,N/A,,Clear,310,2012-12-23 18:15:00
10:35 AM,44.6,37.4,76,30.15,10.0,NW,17.3,25.3,N/A,,Clear,320,2012-12-23 18:35:00
10:55 AM,44.6,37.4,76,30.14,10.0,NW,18.4,21.9,N/A,,Partly Cloudy,310,2012-12-23 18:55:00
11:15 AM,44.6,35.6,71,30.14,10.0,NW,15.0,19.6,N/A,,Scattered Clouds,320,2012-12-23 19:15:00
11:35 AM,44.6,35.6,71,30.13,10.0,NW,16.1,20.7,N/A,,Partly Cloudy,320,2012-12-23 19:35:00
11:55 AM,44.6,35.6,71,30.12,10.0,NW,12.7,-,N/A,,Partly Cloudy,320,2012-12-23 19:55:00
12:15 PM,46.4,33.8,62,30.12,10.0,NW,13.8,-,N/A,,Scattered Clouds,320,2012-12-23 20:15:00
12:35 PM,44.6,33.8,66,30.11,10.0,NW,12.7,24.2,N/A,,Mostly Cloudy,320,2012-12-23 20:35:00
12:55 PM,46.4,33.8,62,30.10,10.0,NW,15.0,-,N/A,,Overcast,320,2012-12-23 20:55:00
1:15 PM,44.6,33.8,66,30.09,10.0,NW,18.4,21.9,N/A,Rain,Light Rain,320,2012-12-23 21:15:00
1:35 PM,41.0,35.6,81,30.09,5.0,NW,13.8,20.7,N/A,Rain,Light Rain,310,2012-12-23 21:35:00
1:55 PM,41.0,35.6,81,30.09,4.0,NW,13.8,-,0.02,Rain,Light Rain,310,2012-12-23 21:55:00
2:15 PM,41.0,37.4,87,30.09,10.0,NW,11.5,17.3,N/A,Rain,Light Rain,310,2012-12-23 22:15:00
2:35 PM,39.2,37.4,93,30.08,5.0,NW,15.0,-,N/A,Rain,Light Rain,320,2012-12-23 22:35:00
2:55 PM,39.2,37.4,93,30.07,10.0,NW,12.7,-,N/A,,Overcast,320,2012-12-23 22:55:00
3:15 PM,41.0,37.4,87,30.07,10.0,NW,11.5,-,N/A,,Overcast,320,2012-12-23 23:15:00
3:35 PM,41.0,37.4,87,30.07,10.0,NW,9.2,-,N/A,,Overcast,310,2012-12-23 23:35:00
3:55 PM,41.0,35.6,81,30.07,10.0,NW,11.5,-,N/A,,Overcast,310,2012-12-23 23:55:00
4:15 PM,39.2,35.6,87,30.07,10.0,NW,9.2,-,N/A,,Overcast,320,2012-12-24 00:15:00
4:35 PM,39.2,35.6,87,30.06,10.0,NW,9.2,-,N/A,,Overcast,320,2012-12-24 00:35:00
4:55 PM,39.2,35.6,87,30.06,10.0,NW,8.1,-,N/A,,Overcast,320,2012-12-24 00:55:00
5:15 PM,41.0,35.6,81,30.06,10.0,NW,10.4,-,N/A,,Overcast,310,2012-12-24 01:15:00
5:35 PM,41.0,35.6,81,30.05,10.0,WNW,12.7,19.6,N/A,,Overcast,300,2012-12-24 01:35:00
5:55 PM,41.0,35.6,81,30.05,10.0,NW,12.7,-,N/A,,Overcast,310,2012-12-24 01:55:00
6:15 PM,41.0,35.6,81,30.05,10.0,NW,11.5,-,N/A,,Overcast,310,2012-12-24 02:15:00
6:35 PM,41.0,35.6,81,30.06,10.0,NW,13.8,-,N/A,,Overcast,320,2012-12-24 02:35:00
6:55 PM,41.0,35.6,81,30.06,10.0,NW,9.2,-,N/A,,Overcast,320,2012-12-24 02:55:00
7:15 PM,41.0,35.6,81,30.07,10.0,NW,12.7,-,N/A,,Overcast,320,2012-12-24 03:15:00
7:35 PM,44.6,35.6,71,30.07,10.0,NW,15.0,-,N/A,,Overcast,310,2012-12-24 03:35:00
7:55 PM,44.6,35.6,71,30.06,10.0,WNW,13.8,19.6,N/A,,Overcast,300,2012-12-24 03:55:00
8:15 PM,44.6,35.6,71,30.05,10.0,NW,16.1,21.9,N/A,,Overcast,310,2012-12-24 04:15:00
8:35 PM,44.6,35.6,71,30.05,10.0,West,10.4,18.4,N/A,,Mostly Cloudy,280,2012-12-24 04:35:00
8:55 PM,44.6,37.4,76,30.04,6.0,WNW,13.8,21.9,0.01,Rain,Light Rain,300,2012-12-24 04:55:00
9:15 PM,42.8,37.4,81,30.04,10.0,WNW,13.8,-,N/A,,Mostly Cloudy,300,2012-12-24 05:15:00
9:35 PM,44.6,37.4,76,30.04,10.0,NW,11.5,-,N/A,,Overcast,310,2012-12-24 05:35:00
9:55 PM,44.6,37.4,76,30.04,10.0,NW,13.8,18.4,N/A,,Overcast,320,2012-12-24 05:55:00
10:15 PM,46.4,37.4,71,30.03,10.0,NW,9.2,-,N/A,,Overcast,310,2012-12-24 06:15:00
10:35 PM,46.4,37.4,71,30.03,10.0,WNW,15.0,19.6,N/A,,Overcast,290,2012-12-24 06:35:00
10:55 PM,48.2,37.4,66,30.02,10.0,WNW,13.8,21.9,N/A,,Overcast,290,2012-12-24 06:55:00
11:15 PM,48.2,37.4,66,30.02,10.0,WNW,15.0,21.9,N/A,,Overcast,290,2012-12-24 07:15:00
11:35 PM,48.2,37.4,66,30.01,8.0,WNW,12.7,20.7,N/A,Rain,Light Rain,300,2012-12-24 07:35:00
11:55 PM,48.2,37.4,66,30.01,10.0,West,15.0,24.2,N/A,,Mostly Cloudy,280,2012-12-24 07:55:00